Weather History for Fort Indiantown Gap, PA

Change the Weather History Date:

Sunday, October 7, 2012

  Actual Average Record
Temperature  
Mean Temperature 50 °F -  
Max Temperature 54 °F 65 °F 85 °F (2007)
Min Temperature 45 °F 46 °F 35 °F (2003)
Degree Days  
Heating Degree Days 15    
Moisture  
Dew Point 40 °F    
Average Humidity 74    
Maximum Humidity 93    
Minimum Humidity 53    
Precipitation  
Precipitation 0.05 in - - ()
Sea Level Pressure  
Sea Level Pressure 30.09 in    
Wind  
Wind Speed 3 mph (West)    
Max Wind Speed 12 mph    
Max Gust Speed 17 mph    
Visibility 3 miles    
Events Rain    
Averages and records for this station are not official NWS values.
T = Trace of Precipitation, MM = Missing Value Source: NWS Daily Summary

Daily Weather History Graph

Daily Weather History Graph

Search for Another Location

Airport:

Trip Planner

Search our weather history database for the weather conditions in past years. The results will help you decide how hot, cold, wet, or windy it might be!

Date:

Astronomy

Oct. 07, 2012 Rise Set
Actual Time 7:09 AM EDT 6:37 PM EDT
Civil Twilight 6:42 AM EDT 7:05 PM EDT
Nautical Twilight 6:10 AM EDT 7:36 PM EDT
Astronomical Twilight 5:38 AM EDT 8:08 PM EDT
Moon 11:46 PM EDT (10/7) 1:45 PM EDT (10/7)
Length of Visible Light 12h 23m
Length of Day
11h 28m
Waning Gibbous, 56% of the Moon is Illuminated
Oct 7
Waning Gibbous
Oct 8
Last Quarter
Oct 15
New
Oct 21
First Quarter
Oct 29
Full

Hourly Weather History & Observations

Time (EDT) Temp. Windchill Dew Point Humidity Pressure Visibility Wind Dir Wind Speed Gust Speed Precip Events Conditions
12:55 AM 51.6 °F - 35.1 °F 53% 30.06 in 4.0 mi NW 8.1 mph 17.3 mph N/A   Haze
1:55 AM 48.2 °F - 38.1 °F 68% 30.06 in 3.0 mi NNW 4.6 mph - N/A   Haze
1:59 AM 48.2 °F - 37.4 °F 66% 30.06 in 2.5 mi NNW 4.6 mph - N/A   Haze
2:13 AM 50.0 °F - 35.6 °F 58% 30.05 in 3.0 mi Variable 4.6 mph - N/A   Haze
2:49 AM 50.0 °F - 33.8 °F 54% 30.04 in 2.5 mi Variable 4.6 mph - N/A   Haze
2:55 AM 50.0 °F - 34.3 °F 55% 30.04 in 2.5 mi Calm Calm - N/A   Haze
2:57 AM 50.0 °F - 35.6 °F 58% 30.05 in 3.0 mi Calm Calm - N/A   Haze
3:17 AM 50.0 °F - 33.8 °F 54% 30.04 in 2.5 mi Variable 3.5 mph - N/A   Haze
3:39 AM 50.0 °F - 33.8 °F 54% 30.03 in 3.0 mi NW 5.8 mph - N/A   Haze
3:48 AM 50.0 °F - 33.8 °F 54% 30.03 in 2.5 mi Variable 4.6 mph - N/A   Haze
3:55 AM 49.6 °F - 34.0 °F 55% 30.03 in 2.5 mi Calm Calm - N/A   Haze
4:13 AM 50.0 °F - 33.8 °F 54% 30.03 in 3.0 mi Calm Calm - N/A   Haze
4:22 AM 50.0 °F - 33.8 °F 54% 30.04 in 2.5 mi Calm Calm - N/A   Haze
4:30 AM 50.0 °F - 33.8 °F 54% 30.04 in 3.0 mi Calm Calm - N/A   Haze
4:55 AM 47.5 °F - 36.3 °F 65% 30.06 in 3.0 mi SE 3.5 mph - N/A   Haze
4:58 AM 48.2 °F - 37.4 °F 66% 30.07 in 2.5 mi Calm Calm - N/A   Haze
5:22 AM 46.4 °F - 39.2 °F 76% 30.07 in 3.0 mi Calm Calm - N/A   Haze
5:48 AM 46.4 °F - 39.2 °F 76% 30.08 in 2.5 mi Calm Calm - N/A   Haze
5:55 AM 46.8 °F - 39.2 °F 75% 30.09 in 2.5 mi Calm Calm - N/A   Haze
6:02 AM 46.4 °F - 41.0 °F 81% 30.09 in 3.0 mi Calm Calm - N/A   Haze
6:19 AM 46.4 °F - 41.0 °F 81% 30.09 in 2.5 mi Calm Calm - N/A   Haze
6:44 AM 46.4 °F 43.5 °F 41.0 °F 81% 30.09 in 3.0 mi North 5.8 mph - N/A   Haze
6:47 AM 46.4 °F - 41.0 °F 81% 30.09 in 2.5 mi Calm Calm - N/A   Haze
6:55 AM 46.4 °F 45.2 °F 40.1 °F 79% 30.09 in 2.0 mi NE 3.5 mph - N/A   Haze
7:15 AM 46.4 °F - 41.0 °F 81% 30.09 in 1.8 mi Calm Calm - N/A   Haze
7:17 AM 46.4 °F - 41.0 °F 81% 30.09 in 1.5 mi Calm Calm - N/A   Haze
7:24 AM 46.4 °F - 41.0 °F 81% 30.10 in 1.2 mi Calm Calm - N/A   Haze
7:27 AM 46.4 °F - 41.0 °F 81% 30.10 in 1.5 mi Calm Calm - N/A   Haze
7:34 AM 46.4 °F - 41.0 °F 81% 30.10 in 1.5 mi Calm Calm - N/A   Haze
7:46 AM 46.4 °F - 41.0 °F 81% 30.11 in 1.2 mi Calm Calm - N/A   Haze
7:49 AM 46.4 °F - 42.8 °F 87% 30.11 in 1.5 mi Calm Calm - N/A   Haze
7:52 AM 46.4 °F - 41.0 °F 81% 30.12 in 1.8 mi Calm Calm - N/A   Haze
7:54 AM 46.4 °F - 41.0 °F 81% 30.12 in 2.0 mi Calm Calm - N/A   Haze
7:55 AM 46.4 °F - 41.7 °F 84% 30.12 in 2.0 mi Calm Calm - N/A   Haze
7:58 AM 46.4 °F - 41.0 °F 81% 30.12 in 2.5 mi Calm Calm - N/A   Light Drizzle
8:03 AM 46.4 °F - 41.0 °F 81% 30.12 in 1.8 mi Calm Calm - N/A Rain Light Rain
8:06 AM 46.4 °F - 42.8 °F 87% 30.12 in 1.5 mi Calm Calm - N/A Rain Light Rain
8:09 AM 46.4 °F - 42.8 °F 87% 30.11 in 1.2 mi Calm Calm - N/A Rain Light Rain
8:17 AM 46.4 °F - 42.8 °F 87% 30.12 in 1.5 mi Calm Calm - N/A Rain Light Rain
8:21 AM 46.4 °F - 42.8 °F 87% 30.12 in 1.8 mi Calm Calm - N/A Rain Light Rain
8:34 AM 46.4 °F - 42.8 °F 87% 30.12 in 2.0 mi Calm Calm - N/A   Partly Cloudy
8:41 AM 46.4 °F - 42.8 °F 87% 30.12 in 1.8 mi Calm Calm - N/A   Clear
8:43 AM 46.4 °F - 44.6 °F 93% 30.12 in 1.8 mi Calm Calm - N/A   Light Drizzle
8:55 AM 46.9 °F - 44.1 °F 90% 30.13 in 1.8 mi Calm Calm - 0.01 in   Light Drizzle
8:56 AM 46.4 °F - 44.6 °F 93% 30.13 in 1.8 mi Calm Calm - N/A   Clear
8:59 AM 46.4 °F - 42.8 °F 87% 30.13 in 1.5 mi Calm Calm - N/A   Clear
9:05 AM 46.4 °F - 44.6 °F 93% 30.13 in 1.8 mi Calm Calm - N/A   Clear
9:10 AM 48.2 °F - 42.8 °F 82% 30.13 in 2.0 mi Calm Calm - N/A   Clear
9:36 AM 48.2 °F - 42.8 °F 82% 30.13 in 1.8 mi Calm Calm - N/A   Haze
9:43 AM 48.2 °F - 42.8 °F 82% 30.13 in 2.0 mi Calm Calm - N/A   Haze
9:48 AM 48.2 °F - 42.8 °F 82% 30.13 in 1.8 mi Calm Calm - N/A   Haze
9:55 AM 48.6 °F - 42.8 °F 80% 30.13 in 1.8 mi Calm Calm - N/A   Haze
10:08 AM 48.2 °F - 42.8 °F 82% 30.13 in 2.0 mi Calm Calm - N/A   Haze
10:50 AM 50.0 °F - 42.8 °F 76% 30.12 in 1.8 mi Calm Calm - N/A   Haze
10:55 AM 49.6 °F - 43.0 °F 78% 30.12 in 1.5 mi Calm Calm - N/A   Haze
11:04 AM 50.0 °F - 42.8 °F 76% 30.12 in 1.8 mi Calm Calm - N/A   Haze
11:09 AM 50.0 °F - 41.0 °F 71% 30.12 in 2.0 mi Calm Calm - N/A   Haze
11:24 AM 50.0 °F - 42.8 °F 76% 30.12 in 3.0 mi Calm Calm - N/A   Haze
11:55 AM 52.0 °F - 42.3 °F 69% 30.11 in 3.0 mi Variable 3.5 mph - N/A   Haze
12:32 PM 53.6 °F - 41.0 °F 62% 30.11 in 2.5 mi Calm Calm - N/A   Haze
12:41 PM 53.6 °F - 39.2 °F 58% 30.10 in 3.0 mi South 6.9 mph - N/A   Haze
12:55 PM 53.4 °F - 39.0 °F 58% 30.10 in 3.0 mi SW 6.9 mph - N/A   Haze
1:55 PM 54.1 °F - 39.0 °F 57% 30.07 in 4.0 mi SSW 8.1 mph - N/A   Haze
2:55 PM 53.4 °F - 39.6 °F 59% 30.06 in 3.0 mi SW 8.1 mph - N/A   Haze
3:55 PM 53.2 °F - 40.1 °F 61% 30.04 in 3.0 mi SSW 4.6 mph - N/A   Haze
4:38 PM 51.8 °F - 39.2 °F 62% 30.04 in 3.0 mi SW 6.9 mph - N/A   Light Drizzle
4:55 PM 52.2 °F - 40.5 °F 64% 30.04 in 3.0 mi SSW 4.6 mph - 0.00 in   Light Drizzle
5:00 PM 51.8 °F - 41.0 °F 67% 30.04 in 3.0 mi SW 4.6 mph - N/A   Haze
5:02 PM 51.8 °F - 41.0 °F 67% 30.04 in 3.0 mi SW 4.6 mph - N/A   Light Drizzle
5:12 PM 51.8 °F - 41.0 °F 67% 30.06 in 3.0 mi WSW 6.9 mph - N/A   Haze
5:21 PM 51.8 °F - 41.0 °F 67% 30.07 in 3.0 mi WSW 8.1 mph - N/A   Light Drizzle
5:47 PM 51.8 °F - 42.8 °F 71% 30.06 in 2.5 mi WNW 3.5 mph - N/A   Light Drizzle
5:55 PM 50.5 °F - 43.0 °F 75% 30.07 in 2.5 mi West 4.6 mph - 0.00 in   Light Drizzle
5:57 PM 50.0 °F - 42.8 °F 76% 30.07 in 3.0 mi West 4.6 mph - N/A   Light Drizzle
5:58 PM 50.0 °F - 42.8 °F 76% 30.07 in 3.0 mi West 3.5 mph - N/A   Haze
6:07 PM 50.0 °F - 42.8 °F 76% 30.08 in 3.0 mi West 6.9 mph - N/A Rain Light Rain
6:55 PM 48.9 °F - 45.3 °F 87% 30.09 in 4.0 mi SW 3.5 mph - 0.03 in Rain Light Rain
7:47 PM 48.2 °F - 46.4 °F 93% 30.11 in 5.0 mi SW 4.6 mph - N/A   Partly Cloudy
7:55 PM 48.4 °F - 45.3 °F 89% 30.11 in 5.0 mi SW 4.6 mph - 0.01 in   Scattered Clouds
8:32 PM 48.2 °F - 42.8 °F 82% 30.12 in 4.0 mi West 10.4 mph - N/A   Light Drizzle
8:42 PM 48.2 °F - 42.8 °F 82% 30.13 in 4.0 mi Variable 4.6 mph - N/A   Haze
8:55 PM 47.7 °F - 42.6 °F 83% 30.13 in 4.0 mi NW 5.8 mph - 0.00 in   Haze
9:55 PM 46.9 °F - 41.4 °F 81% 30.13 in 4.0 mi West 5.8 mph - N/A   Haze
10:55 PM 46.4 °F 44.3 °F 40.1 °F 79% 30.15 in 8.0 mi West 4.6 mph - N/A   Partly Cloudy
11:06 PM 46.4 °F 41.1 °F 39.2 °F 76% 30.15 in 7.0 mi West 11.5 mph 16.1 mph N/A   Mostly Cloudy
11:20 PM 46.4 °F 41.9 °F 39.2 °F 76% 30.16 in 7.0 mi West 9.2 mph - N/A   Mostly Cloudy
11:33 PM 46.4 °F 41.9 °F 39.2 °F 76% 30.16 in 10.0 mi West 9.2 mph - N/A   Mostly Cloudy
11:50 PM 46.4 °F 44.3 °F 37.4 °F 71% 30.16 in 10.0 mi WNW 4.6 mph 17.3 mph N/A   Scattered Clouds
11:55 PM 45.7 °F 42.0 °F 37.8 °F 74% 30.16 in 9.0 mi WNW 6.9 mph 17.3 mph N/A   Scattered Clouds